Home   Weather   Liège   Past weeks

Flag for Belgium Past Weather in Liège, Belgium — Yesterday and Last 2 Weeks

50 °F


Feels Like: 47 °F
Forecast: 51 / 58 °F
Wind: 8 mph from Southwest

Location: Bierset

Current Time: Oct 27, 2016 at 10:51:52 AM

Latest Report: Oct 27, 2016 at 10:20 AM

Visibility: 2 mi

Pressure: 30.51 "Hg

Humidity: 88%

Dew Point: 46 °F

Location of LiègeLocation

Past Weather in Liège — Graph


Liège Temperature Yesterday

Maximum temperature yesterday: 54 °F (at 4:50 PM)
Minimum temperature yesterday: 37 °F (at 6:20 AM)
Average temperature yesterday: 45 °F

High & Low Weather Summary for the Past Weeks

High66 °F (Oct 16, 1:50 PM)100% (Oct 12, 12:50 PM)30.51 "Hg (Oct 12, 12:50 PM)
Low36 °F (Oct 23, 2:50 AM)44% (Oct 13, 2:20 PM)29.65 "Hg (Oct 14, 7:20 PM)
Average48 °F84%30.02 "Hg
* Reported Oct 12 9:20 AM — Oct 27 9:20 AM, Liège, Weather by CustomWeather, © 2016

Note: Actual official high and low records may vary slightly from our data, if they occured in-between our weather recording intervals... More about our weather records


Liège Weather History for the Previous 24 Hours

Scroll right to see more
Time TempWeatherWind HumidityBarometerVisibility
9:20 AM
Thu, Oct 27
48 °FFog.8 mph94%30.51 "Hg2 mi
8:50 AM48 °FFog.8 mph94%30.51 "Hg2 mi
8:20 AM48 °FFog.6 mph94%30.48 "Hg2 mi
7:50 AM48 °FFog.5 mph87%30.48 "Hg2 mi
7:20 AM48 °FFog.8 mph87%30.48 "Hg2 mi
6:50 AM48 °FFog.5 mph87%30.48 "Hg2 mi
6:20 AM48 °FFog.7 mph82%30.48 "Hg2 mi
5:50 AM46 °FFog.7 mph93%30.48 "Hg2 mi
5:20 AM46 °FFog.7 mph82%30.45 "Hg2 mi
4:50 AM46 °FFog.8 mph87%30.45 "Hg2 mi
4:20 AM46 °FFog.7 mph87%30.45 "Hg2 mi
3:50 AM46 °FFog.8 mph82%30.45 "Hg1 mi
3:20 AM46 °FFog.5 mph87%30.48 "Hg2 mi
2:50 AM46 °FFog.5 mph87%30.45 "Hg2 mi
2:20 AM46 °FFog.3 mph76%30.45 "Hg2 mi
1:50 AM46 °FFog.7 mph82%30.45 "Hg2 mi
1:20 AM46 °FFog.7 mph87%30.45 "Hg2 mi
12:50 AM46 °FFog.7 mph87%30.45 "Hg2 mi
12:20 AM46 °FFog.5 mph93%30.45 "Hg2 mi
11:50 PM
Wed, Oct 26
45 °FFog.7 mph87%30.45 "Hg2 mi
11:20 PM46 °FFog.5 mph87%30.45 "Hg2 mi
10:50 PM45 °FFog.5 mph93%30.45 "Hg1 mi
10:20 PM48 °FFog.3 mph82%30.45 "Hg2 mi
9:50 PM48 °FFog.3 mph82%30.45 "Hg2 mi
9:20 PM48 °FFog.5 mph87%30.42 "Hg2 mi
8:50 PM48 °FFog.2 mph82%30.42 "Hg3 mi
8:20 PM50 °FFog.3 mph76%30.42 "Hg3 mi
7:50 PM50 °FHaze.3 mph76%30.42 "Hg3 mi
7:20 PM50 °FHaze.3 mph76%30.39 "Hg3 mi
6:50 PM50 °FClear.1 mph82%30.39 "Hg4 mi
6:20 PM50 °FClear.1 mph76%30.39 "Hg4 mi
5:50 PM52 °FClear.1 mph77%30.39 "Hg4 mi
5:20 PM52 °FClear.3 mph72%30.39 "Hg4 mi
4:50 PM54 °FClear.1 mph72%30.39 "Hg4 mi
4:20 PM52 °FHaze.2 mph72%30.39 "Hg3 mi
3:50 PM52 °FHaze.2 mph72%30.39 "Hg3 mi
3:20 PM52 °FHaze.5 mph77%30.39 "Hg3 mi
2:50 PM52 °FHaze.3 mph72%30.39 "Hg3 mi
2:20 PM52 °FClear.5 mph72%30.39 "Hg4 mi
1:50 PM50 °FClear.3 mph76%30.39 "Hg4 mi
1:20 PM50 °FPassing clouds.1 mph76%30.39 "Hg4 mi
12:50 PM46 °FFog.3 mph87%30.39 "Hg2 mi
12:20 PM45 °FFog.5 mph93%30.39 "Hg1 mi
11:50 AM43 °FFog.3 mph100%30.39 "Hg0 mi
11:20 AM43 °FFog.5 mph76%30.39 "Hg0 mi
10:50 AM41 °FFog.5 mph70%30.39 "Hg0 mi
10:20 AM41 °FFog.2 mph81%30.39 "Hg0 mi
Weather by CustomWeather, © 2016

See weather overviewHow to use our weather pages